Time,TemperatureF,DewpointF,PressureIn,WindDirection,WindDirectionDegrees,WindSpeedMPH,WindSpeedGustMPH,Humidity,HourlyPrecipIn,Conditions,Clouds,dailyrainin,SolarRadiationWatts/m^2,SoftwareType,DateUTC
2013-12-15 00:02:00,11.0,7.0,-100.00,North,-999,0.0,0.0,85,0.00,,,0.00,0.000000,,2013-12-15 06:02:00,
2013-12-15 00:12:00,11.0,7.0,-100.00,North,-999,0.0,0.0,85,0.00,,,0.00,0.000000,,2013-12-15 06:12:00,
2013-12-15 00:42:00,11.0,7.0,-100.00,West,277,1.0,2.0,85,0.00,,,0.00,0.000000,,2013-12-15 06:42:00,
2013-12-15 00:52:00,11.0,7.0,-100.00,West,277,1.0,2.0,85,0.00,,,0.00,0.000000,,2013-12-15 06:52:00,
2013-12-15 01:02:00,11.0,7.0,-100.00,West,277,1.0,2.0,85,0.00,,,0.00,0.000000,,2013-12-15 07:02:00,
2013-12-15 01:11:00,11.0,7.0,-100.00,West,277,1.0,2.0,85,0.00,,,0.00,0.000000,,2013-12-15 07:11:00,
2013-12-15 01:42:00,11.0,7.0,-100.00,North,-999,0.0,2.0,85,0.00,,,0.00,0.000000,,2013-12-15 07:42:00,
2013-12-15 01:52:00,11.0,7.0,-100.00,North,-999,0.0,2.0,85,0.00,,,0.00,0.000000,,2013-12-15 07:52:00,
2013-12-15 02:02:00,11.0,7.0,-100.00,North,-999,0.0,2.0,85,0.00,,,0.00,0.000000,,2013-12-15 08:02:00,
2013-12-15 02:11:00,11.0,7.0,-100.00,North,-999,0.0,2.0,85,0.00,,,0.00,0.000000,,2013-12-15 08:11:00,
2013-12-15 02:42:00,11.0,7.0,-100.00,West,281,2.0,5.0,84,0.00,,,0.00,0.000000,,2013-12-15 08:42:00,
2013-12-15 02:52:00,11.0,7.0,-100.00,West,281,2.0,5.0,84,0.00,,,0.00,0.000000,,2013-12-15 08:52:00,
2013-12-15 03:02:00,11.0,7.0,-100.00,West,281,2.0,5.0,84,0.00,,,0.00,0.000000,,2013-12-15 09:02:00,
2013-12-15 03:11:00,11.0,7.0,-100.00,West,281,2.0,5.0,84,0.00,,,0.00,0.000000,,2013-12-15 09:11:00,
2013-12-15 03:43:00,11.0,6.0,-100.00,WNW,290,4.0,11.0,81,0.00,,,0.00,0.000000,,2013-12-15 09:43:00,
2013-12-15 03:53:00,11.0,6.0,-100.00,WNW,290,4.0,11.0,81,0.00,,,0.00,0.000000,,2013-12-15 09:53:00,
2013-12-15 04:03:00,11.0,6.0,-100.00,WNW,290,4.0,11.0,81,0.00,,,0.00,0.000000,,2013-12-15 10:03:00,
2013-12-15 04:12:00,11.0,6.0,-100.00,WNW,290,4.0,11.0,81,0.00,,,0.00,0.000000,,2013-12-15 10:12:00,
2013-12-15 04:43:00,10.0,4.0,-100.00,WNW,292,7.0,16.0,76,0.00,,,0.00,0.000000,,2013-12-15 10:43:00,
2013-12-15 04:53:00,10.0,4.0,-100.00,WNW,292,7.0,16.0,76,0.00,,,0.00,0.000000,,2013-12-15 10:53:00,
2013-12-15 05:02:00,10.0,4.0,-100.00,WNW,292,7.0,16.0,76,0.00,,,0.00,0.000000,,2013-12-15 11:02:00,
2013-12-15 05:12:00,10.0,4.0,-100.00,WNW,292,7.0,16.0,76,0.00,,,0.00,0.000000,,2013-12-15 11:12:00,
2013-12-15 05:43:00,8.0,1.0,-100.00,WNW,286,6.0,14.0,74,0.00,,,0.00,0.000000,,2013-12-15 11:43:00,
2013-12-15 05:52:00,8.0,1.0,-100.00,WNW,286,6.0,14.0,74,0.00,,,0.00,0.000000,,2013-12-15 11:52:00,
2013-12-15 06:02:00,8.0,1.0,-100.00,WNW,286,6.0,14.0,74,0.00,,,0.00,0.000000,,2013-12-15 12:02:00,
2013-12-15 06:12:00,8.0,1.0,-100.00,WNW,286,6.0,14.0,74,0.00,,,0.00,0.000000,,2013-12-15 12:12:00,
2013-12-15 06:42:00,6.0,0.0,-100.00,WNW,283,5.0,13.0,74,0.00,,,0.00,0.000000,,2013-12-15 12:42:00,
2013-12-15 06:52:00,6.0,0.0,-100.00,WNW,283,5.0,13.0,74,0.00,,,0.00,0.000000,,2013-12-15 12:52:00,
2013-12-15 07:02:00,6.0,0.0,-100.00,WNW,283,5.0,13.0,74,0.00,,,0.00,0.000000,,2013-12-15 13:02:00,
2013-12-15 07:11:00,6.0,0.0,-100.00,WNW,283,5.0,13.0,74,0.00,,,0.00,0.000000,,2013-12-15 13:11:00,
2013-12-15 07:42:00,5.0,-1.0,-100.00,West,279,6.0,13.0,74,0.00,,,0.00,0.000000,,2013-12-15 13:42:00,
2013-12-15 07:52:00,5.0,-1.0,-100.00,West,279,6.0,13.0,74,0.00,,,0.00,0.000000,,2013-12-15 13:52:00,
2013-12-15 08:02:00,5.0,-1.0,-100.00,West,279,6.0,13.0,74,0.00,,,0.00,0.000000,,2013-12-15 14:02:00,
2013-12-15 08:11:00,5.0,-1.0,-100.00,West,279,6.0,13.0,74,0.00,,,0.00,0.000000,,2013-12-15 14:11:00,
2013-12-15 08:42:00,6.0,-2.0,-100.00,West,281,6.0,15.0,70,0.00,,,0.00,16.000000,,2013-12-15 14:42:00,
2013-12-15 08:52:00,6.0,-2.0,-100.00,West,281,6.0,15.0,70,0.00,,,0.00,16.000000,,2013-12-15 14:52:00,
2013-12-15 09:02:00,6.0,-2.0,-100.00,West,281,6.0,15.0,70,0.00,,,0.00,16.000000,,2013-12-15 15:02:00,
2013-12-15 09:12:00,6.0,-2.0,-100.00,West,281,6.0,15.0,70,0.00,,,0.00,16.000000,,2013-12-15 15:12:00,
2013-12-15 09:13:00,10.0,0.0,-100.00,WNW,289,8.0,16.0,64,0.00,,,0.00,86.000000,,2013-12-15 15:13:00,
2013-12-15 09:43:00,10.0,0.0,-100.00,WNW,289,8.0,16.0,64,0.00,,,0.00,86.000000,,2013-12-15 15:43:00,
2013-12-15 09:53:00,10.0,0.0,-100.00,WNW,289,8.0,16.0,64,0.00,,,0.00,86.000000,,2013-12-15 15:53:00,
2013-12-15 10:04:00,10.0,0.0,-100.00,WNW,289,8.0,16.0,64,0.00,,,0.00,86.000000,,2013-12-15 16:04:00,
2013-12-15 10:43:00,13.0,1.0,-100.00,WNW,291,9.0,21.0,59,0.00,,,0.00,275.000000,,2013-12-15 16:43:00,
2013-12-15 10:53:00,13.0,1.0,-100.00,WNW,291,9.0,21.0,59,0.00,,,0.00,275.000000,,2013-12-15 16:53:00,
2013-12-15 11:02:00,13.0,1.0,-100.00,WNW,291,9.0,21.0,59,0.00,,,0.00,275.000000,,2013-12-15 17:02:00,
2013-12-15 11:12:00,13.0,1.0,-100.00,WNW,291,9.0,21.0,59,0.00,,,0.00,275.000000,,2013-12-15 17:12:00,
2013-12-15 11:43:00,14.0,3.0,-100.00,WNW,299,9.0,19.0,60,0.00,,,-99.99,295.000000,,2013-12-15 17:43:00,
2013-12-15 11:52:00,14.0,3.0,-100.00,WNW,299,9.0,19.0,60,0.00,,,-99.99,295.000000,,2013-12-15 17:52:00,
2013-12-15 12:02:00,14.0,3.0,-100.00,WNW,299,9.0,19.0,60,0.00,,,-99.99,295.000000,,2013-12-15 18:02:00,
2013-12-15 12:12:00,14.0,3.0,-100.00,WNW,299,9.0,19.0,60,0.00,,,-99.99,295.000000,,2013-12-15 18:12:00,
2013-12-15 12:42:00,14.0,2.0,-100.00,WNW,299,10.0,22.0,57,0.00,,,0.00,253.000000,,2013-12-15 18:42:00,
2013-12-15 12:52:00,14.0,2.0,-100.00,WNW,299,10.0,22.0,57,0.00,,,0.00,253.000000,,2013-12-15 18:52:00,
2013-12-15 13:02:00,14.0,2.0,-100.00,WNW,299,10.0,22.0,57,0.00,,,0.00,253.000000,,2013-12-15 19:02:00,
2013-12-15 13:11:00,14.0,2.0,-100.00,WNW,299,10.0,22.0,57,0.00,,,0.00,253.000000,,2013-12-15 19:11:00,
2013-12-15 13:42:00,15.0,-1.0,-100.00,NW,311,9.0,25.0,48,0.00,,,0.00,303.000000,,2013-12-15 19:42:00,
2013-12-15 13:52:00,15.0,-1.0,-100.00,NW,311,9.0,25.0,48,0.00,,,0.00,303.000000,,2013-12-15 19:52:00,
2013-12-15 14:02:00,15.0,-1.0,-100.00,NW,311,9.0,25.0,48,0.00,,,0.00,303.000000,,2013-12-15 20:02:00,
2013-12-15 14:11:00,15.0,-1.0,-100.00,NW,311,9.0,25.0,48,0.00,,,0.00,303.000000,,2013-12-15 20:11:00,
2013-12-15 14:42:00,14.0,-2.0,-100.00,WNW,295,9.0,21.0,49,0.00,,,0.00,257.000000,,2013-12-15 20:42:00,
2013-12-15 14:52:00,14.0,-2.0,-100.00,WNW,295,9.0,21.0,49,0.00,,,0.00,257.000000,,2013-12-15 20:52:00,
2013-12-15 15:02:00,14.0,-2.0,-100.00,WNW,295,9.0,21.0,49,0.00,,,0.00,257.000000,,2013-12-15 21:02:00,
2013-12-15 15:11:00,14.0,-2.0,-100.00,WNW,295,9.0,21.0,49,0.00,,,0.00,257.000000,,2013-12-15 21:11:00,
2013-12-15 15:43:00,13.0,-3.0,-100.00,NW,310,7.0,20.0,47,0.00,,,0.00,168.000000,,2013-12-15 21:43:00,
2013-12-15 15:54:00,13.0,-3.0,-100.00,NW,310,7.0,20.0,47,0.00,,,0.00,168.000000,,2013-12-15 21:54:00,
2013-12-15 16:03:00,13.0,-3.0,-100.00,NW,310,7.0,20.0,47,0.00,,,0.00,168.000000,,2013-12-15 22:03:00,
2013-12-15 16:12:00,13.0,-3.0,-100.00,NW,310,7.0,20.0,47,0.00,,,0.00,168.000000,,2013-12-15 22:12:00,
2013-12-15 16:43:00,9.0,-3.0,-100.00,WNW,303,6.0,19.0,58,0.00,,,0.00,38.000000,,2013-12-15 22:43:00,
2013-12-15 16:53:00,9.0,-3.0,-100.00,WNW,303,6.0,19.0,58,0.00,,,0.00,38.000000,,2013-12-15 22:53:00,
2013-12-15 17:02:00,9.0,-3.0,-100.00,WNW,303,6.0,19.0,58,0.00,,,0.00,38.000000,,2013-12-15 23:02:00,
2013-12-15 17:12:00,9.0,-3.0,-100.00,WNW,303,6.0,19.0,58,0.00,,,0.00,38.000000,,2013-12-15 23:12:00,
2013-12-15 17:42:00,7.0,-3.0,-100.00,WNW,294,6.0,20.0,64,0.00,,,0.00,1.000000,,2013-12-15 23:42:00,
2013-12-15 17:52:00,7.0,-3.0,-100.00,WNW,294,6.0,20.0,64,0.00,,,0.00,1.000000,,2013-12-15 23:52:00,
2013-12-15 18:02:00,7.0,-3.0,-100.00,WNW,294,6.0,20.0,64,0.00,,,0.00,1.000000,,2013-12-16 00:02:00,
2013-12-15 18:11:00,7.0,-3.0,-100.00,WNW,294,6.0,20.0,64,0.00,,,0.00,1.000000,,2013-12-16 00:11:00,
2013-12-15 18:42:00,5.0,-2.0,-100.00,WNW,287,5.0,13.0,71,0.00,,,0.00,0.000000,,2013-12-16 00:42:00,
2013-12-15 18:52:00,5.0,-2.0,-100.00,WNW,287,5.0,13.0,71,0.00,,,0.00,0.000000,,2013-12-16 00:52:00,
2013-12-15 19:02:00,5.0,-2.0,-100.00,WNW,287,5.0,13.0,71,0.00,,,0.00,0.000000,,2013-12-16 01:02:00,
2013-12-15 19:11:00,5.0,-2.0,-100.00,WNW,287,5.0,13.0,71,0.00,,,0.00,0.000000,,2013-12-16 01:11:00,
2013-12-15 19:42:00,4.0,-2.0,-100.00,WNW,293,5.0,13.0,76,0.00,,,0.00,0.000000,,2013-12-16 01:42:00,
2013-12-15 19:52:00,4.0,-2.0,-100.00,WNW,293,5.0,13.0,76,0.00,,,0.00,0.000000,,2013-12-16 01:52:00,
2013-12-15 20:02:00,4.0,-2.0,-100.00,WNW,293,5.0,13.0,76,0.00,,,0.00,0.000000,,2013-12-16 02:02:00,
2013-12-15 20:11:00,4.0,-2.0,-100.00,WNW,293,5.0,13.0,76,0.00,,,0.00,0.000000,,2013-12-16 02:11:00,
2013-12-15 20:42:00,2.0,-4.0,-100.00,WNW,291,5.0,14.0,77,0.00,,,0.00,0.000000,,2013-12-16 02:42:00,
2013-12-15 20:52:00,2.0,-4.0,-100.00,WNW,291,5.0,14.0,77,0.00,,,0.00,0.000000,,2013-12-16 02:52:00,
2013-12-15 21:01:00,2.0,-4.0,-100.00,WNW,291,5.0,14.0,77,0.00,,,0.00,0.000000,,2013-12-16 03:01:00,
2013-12-15 21:11:00,2.0,-4.0,-100.00,WNW,291,5.0,14.0,77,0.00,,,0.00,0.000000,,2013-12-16 03:11:00,
2013-12-15 21:13:00,1.0,-5.0,-100.00,WNW,295,5.0,11.0,75,0.00,,,0.00,0.000000,,2013-12-16 03:13:00,
2013-12-15 21:43:00,1.0,-5.0,-100.00,WNW,295,5.0,11.0,75,0.00,,,0.00,0.000000,,2013-12-16 03:43:00,
2013-12-15 21:54:00,1.0,-5.0,-100.00,WNW,295,5.0,11.0,75,0.00,,,0.00,0.000000,,2013-12-16 03:54:00,
2013-12-15 22:03:00,1.0,-5.0,-100.00,WNW,295,5.0,11.0,75,0.00,,,0.00,0.000000,,2013-12-16 04:03:00,
2013-12-15 22:43:00,-1.0,-7.0,-100.00,WNW,293,4.0,10.0,75,0.00,,,0.00,0.000000,,2013-12-16 04:43:00,
2013-12-15 22:53:00,-1.0,-7.0,-100.00,WNW,293,4.0,10.0,75,0.00,,,0.00,0.000000,,2013-12-16 04:53:00,
2013-12-15 23:02:00,-1.0,-7.0,-100.00,WNW,293,4.0,10.0,75,0.00,,,0.00,0.000000,,2013-12-16 05:02:00,
2013-12-15 23:12:00,-1.0,-7.0,-100.00,WNW,293,4.0,10.0,75,0.00,,,0.00,0.000000,,2013-12-16 05:12:00,
2013-12-15 23:43:00,-3.0,-9.0,-100.00,WNW,293,4.0,9.0,76,0.00,,,0.00,0.000000,,2013-12-16 05:43:00,
2013-12-15 23:53:00,-3.0,-9.0,-100.00,WNW,293,4.0,9.0,76,0.00,,,0.00,0.000000,,2013-12-16 05:53:00,